Flag for Antigua and Barbuda Weather past 2 weeks in Saint John's, Antigua and Barbuda

Now
79 °F

Scattered clouds.


Feels Like: 81 °F
Forecast: N/A
Wind: 12 mph from East

Location: Vc Bird International Antigua Airport

Current Time: Mar 31, 2015 at 4:50:25 PM

Latest Report: Mar 31, 2015 at 4:00 PM


Visibility: N/A

Pressure: 29.98 "Hg

Humidity: 70%

Dew point: 68 °F

Location of Saint John'sLocation

Historic Weather in Saint John's — Graph

°F

Saint John's temperature yesterday

Maximum temperature yesterday: 82 °F (at 11:00 AM)
Minimum temperature yesterday: 75 °F (at 2:00 AM)
Average temperature yesterday: 78 °F

Past Weeks' High & Low Weather Summary

 TemperatureHumidityPressure
High82 °F (Mar 18, 11:00 AM)83% (Mar 16, 11:00 PM)30.15 "Hg (Mar 16, 11:00 PM)
Low73 °F (Mar 17, 12:00 AM)51% (Mar 29, 5:00 PM)29.92 "Hg (Mar 16, 4:00 PM)
Average78 °F70%30.03 "Hg
* Reported Mar 16 4:00 PM — Mar 31 4:00 PM, Saint John's, Weather by CustomWeather, © 2015

Note: Actual official high and low records may vary slightly from our data, if they occured in-between our weather recording intervals... More about our weather records

Advertising

Saint John's weather history for previous 24 hours

 ConditionsComfort  
Time TempWeatherWind HumidityBarometerVisibility
4:00 PM
Tue, Mar 31
79 °FScattered clouds.12 mph70%29.98 "HgN/A
3:00 PM79 °FScattered clouds.13 mph70%30.01 "HgN/A
2:00 PM81 °FScattered clouds.12 mph66%30.01 "HgN/A
1:00 PM82 °FScattered clouds.10 mph58%30.04 "HgN/A
12:00 PM81 °FScattered clouds.12 mph62%30.07 "HgN/A
11:00 AM82 °FScattered clouds.12 mph62%30.07 "HgN/A
10:00 AM81 °FScattered clouds.10 mph62%30.07 "HgN/A
9:00 AM81 °FScattered clouds.10 mph62%30.07 "HgN/A
8:00 AM77 °FPartly sunny.7 mph69%30.07 "HgN/A
7:00 AM77 °FScattered clouds.7 mph69%30.04 "HgN/A
6:00 AM75 °FPassing clouds.6 mph74%30.01 "HgN/A
5:00 AM75 °FPassing clouds.7 mph74%29.98 "HgN/A
4:00 AM75 °FPassing clouds.7 mph74%29.98 "HgN/A
3:00 AM75 °FPassing clouds.8 mph74%29.98 "HgN/A
2:00 AM75 °FPassing clouds.6 mph69%30.01 "HgN/A
1:00 AM73 °FPassing clouds.2 mph74%30.01 "HgN/A
12:00 AM75 °FPassing clouds.8 mph69%30.01 "HgN/A
11:00 PM
Mon, Mar 30
75 °FPassing clouds.7 mph69%30.04 "HgN/A
10:00 PM77 °FPassing clouds.7 mph65%30.04 "HgN/A
9:00 PM77 °FPassing clouds.10 mph65%30.04 "HgN/A
8:00 PM77 °FPassing clouds.9 mph69%30.04 "HgN/A
7:00 PM77 °FPassing clouds.10 mph74%30.04 "HgN/A
6:00 PM77 °FPartly sunny.9 mph69%30.01 "HgN/A
5:00 PM79 °FPartly sunny.9 mph70%30.01 "HgN/A
4:00 PM79 °FPartly sunny.12 mph65%30.01 "HgN/A
Weather by CustomWeather, © 2015

See weather overviewHow to use our weather pages